Time,TemperatureF,DewpointF,PressureIn,WindDirection,WindDirectionDegrees,WindSpeedMPH,WindSpeedGustMPH,Humidity,HourlyPrecipIn,Conditions,Clouds,dailyrainin,SolarRadiationWatts/m^2,SoftwareType,DateUTC
2013-03-25 08:39:00,20.2,17.2,30.26,WNW,290,8.0,11.0,88,0.00,,,0.00,95,Wunderground v.1.15,2013-03-25 13:39:00,
2013-03-25 08:44:00,20.3,17.3,30.26,WNW,296,9.0,17.0,88,0.00,,,0.00,105,Wunderground v.1.15,2013-03-25 13:44:00,
2013-03-25 08:49:00,20.4,17.4,30.26,WNW,296,8.0,11.0,88,0.00,,,0.00,114,Wunderground v.1.15,2013-03-25 13:49:00,
2013-03-25 08:54:00,20.4,17.4,30.26,WNW,303,7.0,18.0,88,0.00,,,0.00,123,Wunderground v.1.15,2013-03-25 13:54:00,
2013-03-25 08:59:00,20.4,17.1,30.26,WNW,301,8.0,11.0,87,0.00,,,0.00,135,Wunderground v.1.15,2013-03-25 13:59:00,
2013-03-25 09:04:00,20.5,17.2,30.26,WNW,300,5.0,17.0,87,0.00,,,0.00,153,Wunderground v.1.15,2013-03-25 14:04:00,
2013-03-25 09:09:00,20.6,17.6,30.26,NW,309,15.0,17.0,88,0.00,,,0.00,172,Wunderground v.1.15,2013-03-25 14:09:00,
2013-03-25 09:14:00,20.7,17.4,30.26,WNW,290,12.0,18.0,87,0.00,,,0.00,185,Wunderground v.1.15,2013-03-25 14:14:00,
2013-03-25 09:19:00,20.6,17.3,30.27,NW,312,9.0,18.0,87,0.00,,,0.00,202,Wunderground v.1.15,2013-03-25 14:19:00,
2013-03-25 09:24:00,20.4,17.1,30.26,NW,311,7.0,18.0,87,0.00,,,0.00,209,Wunderground v.1.15,2013-03-25 14:24:00,
2013-03-25 09:29:00,20.2,16.7,30.27,NNW,333,13.0,23.0,86,0.00,,,0.00,211,Wunderground v.1.15,2013-03-25 14:29:00,
2013-03-25 09:34:00,20.0,16.5,30.27,WNW,288,11.0,22.0,86,0.00,,,0.00,218,Wunderground v.1.15,2013-03-25 14:34:00,
2013-03-25 09:39:00,20.3,16.8,30.27,NW,309,11.0,22.0,86,0.00,,,0.00,227,Wunderground v.1.15,2013-03-25 14:39:00,
2013-03-25 09:44:00,20.3,16.8,30.27,WNW,282,11.0,15.0,86,0.00,,,0.00,234,Wunderground v.1.15,2013-03-25 14:44:00,
2013-03-25 09:49:00,20.4,16.9,30.27,WNW,297,9.0,22.0,86,0.00,,,0.00,237,Wunderground v.1.15,2013-03-25 14:49:00,
2013-03-25 09:54:00,20.1,16.3,30.27,WNW,302,12.0,19.0,85,0.00,,,0.00,244,Wunderground v.1.15,2013-03-25 14:54:00,
2013-03-25 09:59:00,20.1,16.3,30.27,NW,308,16.0,20.0,85,0.00,,,0.00,251,Wunderground v.1.15,2013-03-25 14:59:00,
2013-03-25 10:04:00,20.2,16.4,30.27,NW,310,17.0,18.0,85,0.00,,,0.00,260,Wunderground v.1.15,2013-03-25 15:04:00,
2013-03-25 10:09:00,20.4,16.6,30.28,NNW,331,13.0,19.0,85,0.00,,,0.00,267,Wunderground v.1.15,2013-03-25 15:09:00,
2013-03-25 10:14:00,20.2,16.4,30.28,WNW,294,16.0,20.0,85,0.00,,,0.00,279,Wunderground v.1.15,2013-03-25 15:14:00,
2013-03-25 10:19:00,20.2,16.4,30.28,WNW,295,9.0,20.0,85,0.00,,,0.00,290,Wunderground v.1.15,2013-03-25 15:19:00,
2013-03-25 10:24:00,20.2,16.4,30.28,WNW,300,11.0,19.0,85,0.00,,,0.00,301,Wunderground v.1.15,2013-03-25 15:24:00,
2013-03-25 10:29:00,20.3,16.5,30.29,NW,310,9.0,19.0,85,0.00,,,0.00,316,Wunderground v.1.15,2013-03-25 15:29:00,
2013-03-25 10:34:00,20.4,16.3,30.29,NW,306,19.0,19.0,84,0.00,,,0.00,334,Wunderground v.1.15,2013-03-25 15:34:00,
2013-03-25 10:39:00,20.4,16.3,30.29,NNW,327,10.0,19.0,84,0.00,,,0.00,345,Wunderground v.1.15,2013-03-25 15:39:00,
2013-03-25 10:44:00,20.3,16.2,30.29,NW,319,14.0,19.0,84,0.00,,,0.00,343,Wunderground v.1.15,2013-03-25 15:44:00,
2013-03-25 10:49:00,20.2,15.9,30.29,NW,306,15.0,19.0,83,0.00,,,0.00,341,Wunderground v.1.15,2013-03-25 15:49:00,
2013-03-25 10:54:00,20.4,16.1,30.29,NW,315,12.0,17.0,83,0.00,,,0.00,355,Wunderground v.1.15,2013-03-25 15:54:00,
2013-03-25 10:59:00,20.5,16.2,30.30,NW,319,12.0,17.0,83,0.00,,,0.00,374,Wunderground v.1.15,2013-03-25 15:59:00,
2013-03-25 11:04:00,20.9,16.5,30.30,West,276,11.0,19.0,83,0.00,,,0.00,380,Wunderground v.1.15,2013-03-25 16:04:00,
2013-03-25 11:09:00,20.7,16.1,30.30,West,279,12.0,19.0,82,0.00,,,0.00,390,Wunderground v.1.15,2013-03-25 16:09:00,
2013-03-25 11:14:00,20.9,16.5,30.30,NW,316,10.0,15.0,83,0.00,,,0.00,397,Wunderground v.1.15,2013-03-25 16:14:00,
2013-03-25 11:19:00,20.9,16.3,30.30,NW,308,12.0,17.0,82,0.00,,,0.00,410,Wunderground v.1.15,2013-03-25 16:19:00,
2013-03-25 11:24:00,21.2,16.8,30.30,WNW,299,6.0,17.0,83,0.00,,,0.00,425,Wunderground v.1.15,2013-03-25 16:24:00,
2013-03-25 11:29:00,21.2,16.6,30.30,West,278,8.0,19.0,82,0.00,,,0.00,439,Wunderground v.1.15,2013-03-25 16:29:00,
2013-03-25 11:34:00,21.4,17.0,30.30,NW,307,8.0,16.0,83,0.00,,,0.00,452,Wunderground v.1.15,2013-03-25 16:34:00,
2013-03-25 11:39:00,21.3,16.7,30.30,West,277,14.0,19.0,82,0.00,,,0.00,464,Wunderground v.1.15,2013-03-25 16:39:00,
2013-03-25 11:44:00,21.2,16.6,30.31,NW,308,9.0,18.0,82,0.00,,,0.00,480,Wunderground v.1.15,2013-03-25 16:44:00,
2013-03-25 11:50:00,21.6,17.2,30.31,WNW,284,9.0,18.0,83,0.00,,,0.00,510,Wunderground v.1.15,2013-03-25 16:50:00,
2013-03-25 11:55:00,21.7,17.1,30.30,NW,317,13.0,21.0,82,0.00,,,0.00,504,Wunderground v.1.15,2013-03-25 16:55:00,
2013-03-25 12:00:00,21.5,16.9,30.30,WNW,302,16.0,21.0,82,0.00,,,0.00,512,Wunderground v.1.15,2013-03-25 17:00:00,
2013-03-25 12:05:00,21.8,17.4,30.30,NW,311,14.0,18.0,83,0.00,,,0.00,471,Wunderground v.1.15,2013-03-25 17:05:00,
2013-03-25 12:10:00,22.1,17.7,30.31,WNW,299,12.0,12.0,83,0.00,,,0.00,485,Wunderground v.1.15,2013-03-25 17:10:00,
2013-03-25 12:15:00,22.2,17.8,30.31,NW,313,7.0,17.0,83,0.00,,,0.00,489,Wunderground v.1.15,2013-03-25 17:15:00,
2013-03-25 12:20:00,21.8,17.2,30.31,West,277,10.0,10.0,82,0.00,,,0.00,476,Wunderground v.1.15,2013-03-25 17:20:00,
2013-03-25 12:25:00,22.0,17.6,30.31,North,350,11.0,14.0,83,0.00,,,0.00,475,Wunderground v.1.15,2013-03-25 17:25:00,
2013-03-25 12:30:00,22.1,17.4,30.31,NW,306,8.0,9.0,82,0.00,,,0.00,494,Wunderground v.1.15,2013-03-25 17:30:00,
2013-03-25 12:35:00,22.1,17.7,30.31,NNW,333,6.0,15.0,83,0.00,,,0.00,545,Wunderground v.1.15,2013-03-25 17:35:00,
2013-03-25 12:40:00,22.4,17.7,30.31,NNW,337,9.0,9.0,82,0.00,,,0.00,601,Wunderground v.1.15,2013-03-25 17:40:00,
2013-03-25 12:45:00,22.4,17.7,30.31,WNW,300,12.0,18.0,82,0.00,,,0.00,545,Wunderground v.1.15,2013-03-25 17:45:00,
2013-03-25 12:50:00,23.0,18.3,30.31,NNW,333,10.0,11.0,82,0.00,,,0.00,582,Wunderground v.1.15,2013-03-25 17:50:00,
2013-03-25 12:55:00,22.6,17.9,30.31,NW,306,7.0,15.0,82,0.00,,,0.00,575,Wunderground v.1.15,2013-03-25 17:55:00,
2013-03-25 13:00:00,22.9,18.2,30.31,NW,307,4.0,12.0,82,0.00,,,0.00,541,Wunderground v.1.15,2013-03-25 18:00:00,
2013-03-25 13:05:00,22.8,17.8,30.31,NNW,333,5.0,13.0,81,0.00,,,0.00,561,Wunderground v.1.15,2013-03-25 18:05:00,
2013-03-25 13:10:00,22.7,17.7,30.31,NW,322,14.0,14.0,81,0.00,,,0.00,629,Wunderground v.1.15,2013-03-25 18:10:00,
2013-03-25 13:15:00,23.1,18.1,30.31,North,355,12.0,19.0,81,0.00,,,0.00,888,Wunderground v.1.15,2013-03-25 18:15:00,
2013-03-25 13:20:00,24.2,19.2,30.31,NW,325,9.0,12.0,81,0.00,,,0.00,654,Wunderground v.1.15,2013-03-25 18:20:00,
2013-03-25 13:25:00,24.8,19.5,30.31,NNW,340,15.0,16.0,80,0.00,,,0.00,596,Wunderground v.1.15,2013-03-25 18:25:00,
2013-03-25 13:30:00,24.6,19.0,30.31,NW,326,7.0,13.0,79,0.00,,,0.00,640,Wunderground v.1.15,2013-03-25 18:30:00,
2013-03-25 13:35:00,24.6,19.6,30.31,NNW,336,13.0,18.0,81,0.00,,,0.00,628,Wunderground v.1.15,2013-03-25 18:35:00,
2013-03-25 13:40:00,23.8,17.9,30.31,North,350,11.0,15.0,78,0.00,,,0.00,621,Wunderground v.1.15,2013-03-25 18:40:00,
2013-03-25 13:45:00,24.0,18.4,30.31,NNW,338,10.0,15.0,79,0.00,,,0.00,522,Wunderground v.1.15,2013-03-25 18:45:00,
2013-03-25 13:50:00,24.6,19.3,30.31,NNW,340,13.0,13.0,80,0.00,,,0.00,874,Wunderground v.1.15,2013-03-25 18:50:00,
2013-03-25 13:55:00,24.6,19.0,30.31,NW,318,13.0,17.0,79,0.00,,,0.00,510,Wunderground v.1.15,2013-03-25 18:55:00,
2013-03-25 14:00:00,24.7,19.1,30.31,North,355,16.0,16.0,79,0.00,,,0.00,566,Wunderground v.1.15,2013-03-25 19:00:00,
2013-03-25 14:05:00,24.8,18.6,30.31,North,355,13.0,18.0,77,0.00,,,0.00,847,Wunderground v.1.15,2013-03-25 19:05:00,
2013-03-25 14:10:00,26.1,20.5,30.31,NNW,327,9.0,12.0,79,0.00,,,0.00,705,Wunderground v.1.15,2013-03-25 19:10:00,
2013-03-25 14:15:00,25.0,18.5,30.31,NW,320,8.0,15.0,76,0.00,,,0.00,367,Wunderground v.1.15,2013-03-25 19:15:00,
2013-03-25 14:20:00,24.2,18.0,30.31,NNW,346,15.0,16.0,77,0.00,,,0.00,408,Wunderground v.1.15,2013-03-25 19:20:00,
2013-03-25 14:26:00,24.6,18.7,30.31,NW,314,8.0,16.0,78,0.00,,,0.00,540,Wunderground v.1.15,2013-03-25 19:26:00,
2013-03-25 14:32:00,24.7,19.1,30.31,NW,309,9.0,12.0,79,0.00,,,0.00,369,Wunderground v.1.15,2013-03-25 19:32:00,
2013-03-25 14:37:00,24.2,18.3,30.31,WNW,292,9.0,14.0,78,0.00,,,0.00,441,Wunderground v.1.15,2013-03-25 19:37:00,
2013-03-25 14:42:00,24.5,18.9,30.30,NNW,331,10.0,13.0,79,0.00,,,0.00,411,Wunderground v.1.15,2013-03-25 19:42:00,
2013-03-25 14:47:00,24.7,19.4,30.30,North,355,14.0,15.0,80,0.00,,,0.00,418,Wunderground v.1.15,2013-03-25 19:47:00,
2013-03-25 14:52:00,24.6,19.3,30.30,NNW,336,8.0,13.0,80,0.00,,,0.00,425,Wunderground v.1.15,2013-03-25 19:52:00,
2013-03-25 14:57:00,24.3,19.3,30.31,NNW,331,8.0,13.0,81,0.00,,,0.00,461,Wunderground v.1.15,2013-03-25 19:57:00,
2013-03-25 15:02:00,24.4,20.0,30.30,NW,306,10.0,10.0,83,0.00,,,0.00,441,Wunderground v.1.15,2013-03-25 20:02:00,
2013-03-25 15:07:00,24.0,19.6,30.30,NW,304,7.0,13.0,83,0.00,,,0.00,436,Wunderground v.1.15,2013-03-25 20:07:00,
2013-03-25 15:12:00,24.2,19.8,30.30,NNW,336,9.0,13.0,83,0.00,,,0.00,508,Wunderground v.1.15,2013-03-25 20:12:00,
2013-03-25 15:17:00,25.0,20.8,30.30,NNW,328,9.0,15.0,84,0.00,,,0.00,550,Wunderground v.1.15,2013-03-25 20:17:00,
2013-03-25 15:22:00,24.8,20.1,30.30,NW,310,9.0,14.0,82,0.00,,,0.00,531,Wunderground v.1.15,2013-03-25 20:22:00,
2013-03-25 15:27:00,25.3,20.0,30.30,NNW,335,12.0,15.0,80,0.00,,,0.00,455,Wunderground v.1.15,2013-03-25 20:27:00,
2013-03-25 15:32:00,25.4,19.8,30.30,NW,317,11.0,17.0,79,0.00,,,0.00,388,Wunderground v.1.15,2013-03-25 20:32:00,
2013-03-25 15:37:00,25.2,19.6,30.30,WNW,299,10.0,17.0,79,0.00,,,0.00,338,Wunderground v.1.15,2013-03-25 20:37:00,
2013-03-25 15:42:00,24.4,19.4,30.30,WNW,300,9.0,11.0,81,0.00,,,0.00,408,Wunderground v.1.15,2013-03-25 20:42:00,
2013-03-25 15:47:00,24.8,20.7,30.30,NW,319,10.0,12.0,84,0.00,,,0.00,492,Wunderground v.1.15,2013-03-25 20:47:00,
2013-03-25 15:52:00,25.5,20.8,30.30,NNW,338,14.0,18.0,82,0.00,,,0.00,508,Wunderground v.1.15,2013-03-25 20:52:00,
2013-03-25 15:57:00,25.6,19.4,30.30,NNW,334,13.0,18.0,77,0.00,,,0.00,439,Wunderground v.1.15,2013-03-25 20:57:00,
2013-03-25 16:02:00,25.6,19.7,30.30,WNW,301,10.0,15.0,78,0.00,,,0.00,290,Wunderground v.1.15,2013-03-25 21:02:00,
2013-03-25 16:07:00,25.3,20.3,30.30,WNW,299,8.0,15.0,81,0.00,,,0.00,478,Wunderground v.1.15,2013-03-25 21:07:00,
2013-03-25 16:12:00,25.7,21.0,30.30,NNW,329,6.0,11.0,82,0.00,,,0.00,431,Wunderground v.1.15,2013-03-25 21:12:00,
2013-03-25 16:17:00,25.2,19.6,30.31,NNW,334,16.0,16.0,79,0.00,,,0.00,313,Wunderground v.1.15,2013-03-25 21:17:00,
2013-03-25 16:22:00,25.0,19.7,30.31,NW,316,15.0,16.0,80,0.00,,,0.00,418,Wunderground v.1.15,2013-03-25 21:22:00,
2013-03-25 16:27:00,25.0,20.0,30.31,NW,304,9.0,16.0,81,0.00,,,0.00,443,Wunderground v.1.15,2013-03-25 21:27:00,
2013-03-25 16:32:00,25.1,20.4,30.31,NW,319,8.0,13.0,82,0.00,,,0.00,445,Wunderground v.1.15,2013-03-25 21:32:00,
2013-03-25 16:37:00,25.0,20.0,30.31,NW,325,6.0,14.0,81,0.00,,,0.00,341,Wunderground v.1.15,2013-03-25 21:37:00,
2013-03-25 16:42:00,24.9,19.9,30.31,NW,311,7.0,13.0,81,0.00,,,0.00,262,Wunderground v.1.15,2013-03-25 21:42:00,
2013-03-25 16:48:00,24.5,19.8,30.31,NW,312,13.0,15.0,82,0.00,,,0.00,367,Wunderground v.1.15,2013-03-25 21:48:00,
2013-03-25 16:53:00,24.9,19.9,30.31,NW,321,12.0,16.0,81,0.00,,,0.00,432,Wunderground v.1.15,2013-03-25 21:53:00,
2013-03-25 16:58:00,25.0,19.4,30.31,WNW,290,12.0,16.0,79,0.00,,,0.00,279,Wunderground v.1.15,2013-03-25 21:58:00,
2013-03-25 17:03:00,25.0,19.7,30.31,NNW,331,5.0,11.0,80,0.00,,,0.00,302,Wunderground v.1.15,2013-03-25 22:03:00,
2013-03-25 17:08:00,25.1,19.8,30.31,NW,312,6.0,17.0,80,0.00,,,0.00,265,Wunderground v.1.15,2013-03-25 22:08:00,
2013-03-25 17:13:00,24.7,19.1,30.31,NW,315,4.0,12.0,79,0.00,,,0.00,276,Wunderground v.1.15,2013-03-25 22:13:00,
2013-03-25 17:18:00,24.8,19.2,30.31,NW,317,5.0,12.0,79,0.00,,,0.00,276,Wunderground v.1.15,2013-03-25 22:18:00,
2013-03-25 17:23:00,25.0,19.4,30.30,NNW,331,8.0,13.0,79,0.00,,,0.00,287,Wunderground v.1.15,2013-03-25 22:23:00,
2013-03-25 17:28:00,25.1,19.5,30.30,North,355,10.0,15.0,79,0.00,,,0.00,297,Wunderground v.1.15,2013-03-25 22:28:00,
2013-03-25 17:33:00,25.4,19.8,30.30,NW,310,7.0,16.0,79,0.00,,,0.00,272,Wunderground v.1.15,2013-03-25 22:33:00,
2013-03-25 17:38:00,25.5,19.6,30.31,WNW,285,8.0,16.0,78,0.00,,,0.00,246,Wunderground v.1.15,2013-03-25 22:38:00,
2013-03-25 17:43:00,25.3,19.7,30.31,WNW,295,8.0,9.0,79,0.00,,,0.00,253,Wunderground v.1.15,2013-03-25 22:43:00,
2013-03-25 17:48:00,24.9,19.0,30.31,WNW,284,9.0,12.0,78,0.00,,,0.00,225,Wunderground v.1.15,2013-03-25 22:48:00,
2013-03-25 17:53:00,24.9,19.0,30.31,NNW,332,7.0,14.0,78,0.00,,,0.00,197,Wunderground v.1.15,2013-03-25 22:53:00,
2013-03-25 17:58:00,25.1,19.2,30.31,WNW,293,4.0,14.0,78,0.00,,,0.00,171,Wunderground v.1.15,2013-03-25 22:58:00,
2013-03-25 18:03:00,24.9,19.0,30.31,NW,308,9.0,12.0,78,0.00,,,0.00,172,Wunderground v.1.15,2013-03-25 23:03:00,
2013-03-25 18:08:00,24.9,19.0,30.31,NNW,330,7.0,16.0,78,0.00,,,0.00,165,Wunderground v.1.15,2013-03-25 23:08:00,
2013-03-25 18:13:00,24.7,18.8,30.31,NNW,340,9.0,16.0,78,0.00,,,0.00,141,Wunderground v.1.15,2013-03-25 23:13:00,
2013-03-25 18:18:00,24.8,18.9,30.31,NNW,329,8.0,16.0,78,0.00,,,0.00,121,Wunderground v.1.15,2013-03-25 23:18:00,
2013-03-25 18:23:00,24.7,19.1,30.31,NW,313,3.0,11.0,79,0.00,,,0.00,137,Wunderground v.1.15,2013-03-25 23:23:00,
2013-03-25 18:28:00,24.5,18.9,30.31,NW,312,6.0,13.0,79,0.00,,,0.00,121,Wunderground v.1.15,2013-03-25 23:28:00,
2013-03-25 18:33:00,24.5,18.6,30.31,NNW,328,4.0,10.0,78,0.00,,,0.00,102,Wunderground v.1.15,2013-03-25 23:33:00,
2013-03-25 18:38:00,24.5,18.3,30.31,NW,322,8.0,12.0,77,0.00,,,0.00,81,Wunderground v.1.15,2013-03-25 23:38:00,
2013-03-25 18:44:00,24.6,18.4,30.31,NW,323,7.0,10.0,77,0.00,,,0.00,63,Wunderground v.1.15,2013-03-25 23:44:00,
2013-03-25 18:49:00,24.5,18.6,30.32,North,355,8.0,16.0,78,0.00,,,0.00,47,Wunderground v.1.15,2013-03-25 23:49:00,
2013-03-25 18:54:00,24.2,18.3,30.32,NW,315,7.0,8.0,78,0.00,,,0.00,44,Wunderground v.1.15,2013-03-25 23:54:00,
2013-03-25 19:00:00,24.0,18.4,30.32,North,360,6.0,7.0,79,0.00,,,0.00,44,Wunderground v.1.15,2013-03-26 00:00:00,
2013-03-25 19:05:00,23.8,18.5,30.32,North,350,7.0,7.0,80,0.00,,,0.00,47,Wunderground v.1.15,2013-03-26 00:05:00,
2013-03-25 19:10:00,23.7,18.4,30.32,NNW,343,8.0,8.0,80,0.00,,,0.00,51,Wunderground v.1.15,2013-03-26 00:10:00,
2013-03-25 19:15:00,23.7,18.7,30.32,NNW,348,8.0,8.0,81,0.00,,,0.00,46,Wunderground v.1.15,2013-03-26 00:15:00,
2013-03-25 19:20:00,23.8,18.8,30.33,NW,324,7.0,7.0,81,0.00,,,0.00,39,Wunderground v.1.15,2013-03-26 00:20:00,
2013-03-25 19:25:00,23.9,18.9,30.33,NNW,336,4.0,8.0,81,0.00,,,0.00,33,Wunderground v.1.15,2013-03-26 00:25:00,
2013-03-25 19:30:00,23.7,18.7,30.33,NW,323,6.0,6.0,81,0.00,,,0.00,28,Wunderground v.1.15,2013-03-26 00:30:00,
2013-03-25 19:35:00,23.7,18.7,30.33,NNW,340,9.0,10.0,81,0.00,,,0.00,19,Wunderground v.1.15,2013-03-26 00:35:00,
2013-03-25 19:40:00,23.6,18.6,30.33,WNW,295,6.0,6.0,81,0.00,,,0.00,12,Wunderground v.1.15,2013-03-26 00:40:00,
2013-03-25 19:45:00,23.6,18.6,30.33,WNW,286,3.0,10.0,81,0.00,,,0.00,7,Wunderground v.1.15,2013-03-26 00:45:00,
2013-03-25 19:50:00,23.6,18.6,30.33,NW,304,4.0,5.0,81,0.00,,,0.00,0,Wunderground v.1.15,2013-03-26 00:50:00,
2013-03-25 19:56:00,23.5,18.8,30.33,NNW,342,5.0,6.0,82,0.00,,,0.00,0,Wunderground v.1.15,2013-03-26 00:56:00,
2013-03-25 20:01:00,23.4,19.0,30.33,NNW,329,9.0,9.0,83,0.00,,,0.00,0,Wunderground v.1.15,2013-03-26 01:01:00,
2013-03-25 20:06:00,23.2,18.8,30.33,NNW,337,4.0,9.0,83,0.00,,,0.00,0,Wunderground v.1.15,2013-03-26 01:06:00,
2013-03-25 20:11:00,23.0,18.6,30.33,NW,322,4.0,4.0,83,0.00,,,0.00,0,Wunderground v.1.15,2013-03-26 01:11:00,
2013-03-25 20:17:00,23.0,18.6,30.33,NNW,347,5.0,6.0,83,0.00,,,0.00,0,Wunderground v.1.15,2013-03-26 01:17:00,
2013-03-25 20:22:00,23.0,18.6,30.32,NNW,340,5.0,5.0,83,0.00,,,0.00,0,Wunderground v.1.15,2013-03-26 01:22:00,
2013-03-25 20:29:00,23.0,18.9,30.32,NNW,348,5.0,6.0,84,0.00,,,0.00,0,Wunderground v.1.15,2013-03-26 01:29:00,
2013-03-25 20:34:00,23.0,18.9,30.33,NNW,336,1.0,4.0,84,0.00,,,0.00,0,Wunderground v.1.15,2013-03-26 01:34:00,
2013-03-25 20:39:00,23.0,18.9,30.32,NNW,331,3.0,6.0,84,0.00,,,0.00,0,Wunderground v.1.15,2013-03-26 01:39:00,
2013-03-25 20:44:00,23.0,18.6,30.32,NNW,334,4.0,4.0,83,0.00,,,0.00,0,Wunderground v.1.15,2013-03-26 01:44:00,
2013-03-25 20:49:00,23.1,18.7,30.32,NNW,336,2.0,6.0,83,0.00,,,0.00,0,Wunderground v.1.15,2013-03-26 01:49:00,
2013-03-25 20:54:00,23.0,18.6,30.32,NNW,327,3.0,5.0,83,0.00,,,0.00,0,Wunderground v.1.15,2013-03-26 01:54:00,
2013-03-25 20:59:00,22.9,18.5,30.32,NW,316,3.0,6.0,83,0.00,,,0.00,0,Wunderground v.1.15,2013-03-26 01:59:00,
2013-03-25 21:04:00,22.9,18.5,30.33,NW,321,1.0,5.0,83,0.00,,,0.00,0,Wunderground v.1.15,2013-03-26 02:04:00,
2013-03-25 21:09:00,22.9,18.5,30.33,NNW,337,4.0,5.0,83,0.00,,,0.00,0,Wunderground v.1.15,2013-03-26 02:09:00,
2013-03-25 21:14:00,22.9,18.5,30.33,NNW,344,3.0,5.0,83,0.00,,,0.00,0,Wunderground v.1.15,2013-03-26 02:14:00,
2013-03-25 21:19:00,22.9,18.5,30.33,NNW,334,1.0,5.0,83,0.00,,,0.00,0,Wunderground v.1.15,2013-03-26 02:19:00,
2013-03-25 21:24:00,23.0,18.6,30.33,NNW,338,4.0,5.0,83,0.00,,,0.00,0,Wunderground v.1.15,2013-03-26 02:24:00,
2013-03-25 21:29:00,23.0,18.6,30.33,NNW,340,5.0,5.0,83,0.00,,,0.00,0,Wunderground v.1.15,2013-03-26 02:29:00,
2013-03-25 21:34:00,23.0,18.6,30.33,NNW,335,4.0,6.0,83,0.00,,,0.00,0,Wunderground v.1.15,2013-03-26 02:34:00,
2013-03-25 21:39:00,22.9,18.5,30.33,NW,313,2.0,6.0,83,0.00,,,0.00,0,Wunderground v.1.15,2013-03-26 02:39:00,
2013-03-25 21:44:00,23.0,18.6,30.34,NW,311,2.0,5.0,83,0.00,,,0.00,0,Wunderground v.1.15,2013-03-26 02:44:00,
2013-03-25 21:49:00,22.9,18.5,30.34,NW,311,1.0,5.0,83,0.00,,,0.00,0,Wunderground v.1.15,2013-03-26 02:49:00,
2013-03-25 21:54:00,22.9,18.5,30.34,NW,311,1.0,3.0,83,0.00,,,0.00,0,Wunderground v.1.15,2013-03-26 02:54:00,
2013-03-25 21:59:00,22.8,18.4,30.34,NW,311,1.0,3.0,83,0.00,,,0.00,0,Wunderground v.1.15,2013-03-26 02:59:00,
2013-03-25 22:04:00,22.7,18.6,30.34,NW,311,0.0,2.0,84,0.00,,,0.00,0,Wunderground v.1.15,2013-03-26 03:04:00,
2013-03-25 22:09:00,22.6,18.2,30.34,NW,311,0.0,3.0,83,0.00,,,0.00,0,Wunderground v.1.15,2013-03-26 03:09:00,
2013-03-25 22:14:00,22.4,18.0,30.34,NW,311,0.0,3.0,83,0.00,,,0.00,0,Wunderground v.1.15,2013-03-26 03:14:00,
2013-03-25 22:19:00,22.1,18.0,30.34,NW,311,0.0,3.0,84,0.00,,,0.00,0,Wunderground v.1.15,2013-03-26 03:19:00,
2013-03-25 22:24:00,21.7,17.3,30.34,NW,311,0.0,1.0,83,0.00,,,0.00,0,Wunderground v.1.15,2013-03-26 03:24:00,
2013-03-25 22:29:00,21.3,16.9,30.34,NW,311,0.0,1.0,83,0.00,,,0.00,0,Wunderground v.1.15,2013-03-26 03:29:00,
2013-03-25 22:34:00,20.8,16.7,30.34,NW,311,0.0,1.0,84,0.00,,,0.00,0,Wunderground v.1.15,2013-03-26 03:34:00,
2013-03-25 22:39:00,20.1,15.8,30.34,NW,311,0.0,1.0,83,0.00,,,0.00,0,Wunderground v.1.15,2013-03-26 03:39:00,
2013-03-25 22:44:00,19.5,15.2,30.34,NW,311,0.0,2.0,83,0.00,,,0.00,0,Wunderground v.1.15,2013-03-26 03:44:00,
2013-03-25 22:49:00,19.0,15.0,30.34,NW,311,0.0,2.0,84,0.00,,,0.00,0,Wunderground v.1.15,2013-03-26 03:49:00,
2013-03-25 22:54:00,18.6,14.6,30.34,NW,311,0.0,1.0,84,0.00,,,0.00,0,Wunderground v.1.15,2013-03-26 03:54:00,
2013-03-25 22:59:00,18.2,14.2,30.34,NW,311,0.0,2.0,84,0.00,,,0.00,0,Wunderground v.1.15,2013-03-26 03:59:00,
2013-03-25 23:00:00,18.1,14.1,30.34,NW,311,0.0,2.0,84,0.00,,,0.00,0,Wunderground v.1.15,2013-03-26 04:00:00,
2013-03-25 23:05:00,17.7,13.7,30.34,NW,311,2.0,2.0,84,0.00,,,0.00,0,Wunderground v.1.15,2013-03-26 04:05:00,
2013-03-25 23:10:00,17.5,13.8,30.34,NW,311,1.0,2.0,85,0.00,,,0.00,0,Wunderground v.1.15,2013-03-26 04:10:00,
2013-03-25 23:15:00,17.2,13.5,30.34,NW,311,2.0,3.0,85,0.00,,,0.00,0,Wunderground v.1.15,2013-03-26 04:15:00,
2013-03-25 23:20:00,17.1,13.4,30.34,NW,311,1.0,3.0,85,0.00,,,0.00,0,Wunderground v.1.15,2013-03-26 04:20:00,
2013-03-25 23:25:00,16.7,13.0,30.34,NW,311,0.0,2.0,85,0.00,,,0.00,0,Wunderground v.1.15,2013-03-26 04:25:00,
2013-03-25 23:30:00,16.3,12.6,30.34,NW,311,0.0,2.0,85,0.00,,,0.00,0,Wunderground v.1.15,2013-03-26 04:30:00,
2013-03-25 23:35:00,15.7,12.0,30.34,NW,311,0.0,1.0,85,0.00,,,0.00,0,Wunderground v.1.15,2013-03-26 04:35:00,
2013-03-25 23:40:00,15.3,11.6,30.34,NW,311,0.0,0.0,85,0.00,,,0.00,0,Wunderground v.1.15,2013-03-26 04:40:00,
2013-03-25 23:45:00,14.8,11.4,30.34,NW,311,0.0,0.0,86,0.00,,,0.00,0,Wunderground v.1.15,2013-03-26 04:45:00,
2013-03-25 23:50:00,14.4,11.0,30.34,NW,311,0.0,0.0,86,0.00,,,0.00,0,Wunderground v.1.15,2013-03-26 04:50:00,
2013-03-25 23:55:00,14.1,10.7,30.34,NW,311,2.0,2.0,86,0.00,,,0.00,0,Wunderground v.1.15,2013-03-26 04:55:00,